sat.trackr.live / text

‹ back to catalog

STARLINK-6370

NORAD 57373 · 2023-099AX

PAYLOAD ACTIVE UNKNOWN

§ Identity

Operator
Country
US
Launch date
2023-07-16
Launch site
AFETR
Launch vehicle
Mass (kg)
RCS (m²)

Purposes: comms

External: N2YO · Heavens-Above · Gunter

§ Orbital elements

Epoch: 2026-05-24T18:41:54.225312Z

Period
94.27 min
Inclination
43.0020°
Eccentricity
0.0000733
Mean motion
15.27557328 rev/d
Perigee alt
482.6 km
Apogee alt
483.6 km
Semi-major
6,861.3 km
B*
-4.9971e-5
RAAN
172.1699°
Arg perigee
308.1051°
Mean anomaly
51.9735°
Rev number
15,783

§ Raw data

STARLINK-63701 57373U 23099AX  26144.77909983 -.00001636  00000+0 -49971-4 0  99982 57373  43.0020 172.1699 0000733 308.1051  51.9735 15.27557328157831

JSON: /api/v1/satellites/57373 · /tle

For live sub-satellite position, see the globe view (requires WebGL).

§ Visibility from observer

Set your observer location to see the next 7 days of passes ≥ 10°. The values pass through the URL so the page stays shareable.

No JS? Fill the form by hand. The geolocation button needs JavaScript.